Regional Weather Roundup
Issued by NWS State College, PA

Home | Current Version | Previous Version | Graphics & Text | Print | Product List | Glossary Off
Versions: 1 2 3 4 5 6 7 8 9 10 11 12 13 14 15 16 17 18 19 20 21 22 23 24 25 26 27 28 29 30 31 32 33 34 35 36 37 38 39 40 41 42 43 44 45 46 47 48 49 50

000
ASUS41 KCTP 280703
RWRCTP

REGIONAL WEATHER ROUNDUP
NATIONAL WEATHER SERVICE STATE COLLEGE PA
300 AM EDT TUE MAR 28 2017

Note: "fair" indicates few or no clouds below 12,000 feet with no
significant weather and/or obstructions to visibility.

* = STATION THAT DOES NOT REPORT PRECIPITATION /E.G. RAIN...SNOW...ETC/
    THUNDER OR FOG.

PAZ002>004-007>009-013>016-020>023-029>032-280800-
WESTERN PENNSYLVANIA

CITY           SKY/WX    TMP DP  RH WIND       PRES   REMARKS
ERIE           CLOUDY    49  45  86 NE3       29.87F
MEADVILLE      CLOUDY    49  45  86 NE5       29.87F
FRANKLIN*      CLOUDY    48  43  81 NE3       29.88S
NEW CASTLE     RAIN      51  49  92 E3        29.86F FOG
BEAVER COUNTY  NOT AVBL
BUTLER*        CLOUDY    52  48  87 E6        29.87F
PITTSBURGH INT MOCLDY    57  51  80 CALM      29.85F
PITTSBURGH     CLOUDY    59  49  69 S9        29.85F
INDIANA*       CLOUDY    50  48  93 E3        29.88F
LATROBE        CLOUDY    57  54  88 S12       29.88S
WASHINGTON CO* CLOUDY    57  52  82 SW7       29.88F
$$

PAZ004>006-010>012-017>019-024>028-033>037-041-042-045-046-049>053-280800-
CENTRAL PENNSYLVANIA

CITY           SKY/WX    TMP DP  RH WIND       PRES   REMARKS
BRADFORD       CLOUDY    44  44 100 CALM      29.88F
DUBOIS         CLOUDY    49  44  83 E3        29.87F
CLEARFIELD       N/A    N/A N/A N/A MISG      29.88F
JOHNSTOWN      MOCLDY    56  48  74 S6        29.88F
ALTOONA        CLOUDY    55  50  83 NE5       29.88F
STATE COLLEGE  DRIZZLE   50  48  95 N3        29.88F
WILLIAMSPORT   FOG       44  43  96 CALM      29.89F VSB 1/2
SELINSGROVE    CLOUDY    46  45  96 NW3       29.90F FOG
FT INDIANTOWN  PTCLDY    49  49 100 E3        29.90F
CAPITAL CITY   MOCLDY    52  48  86 E3        29.90F FOG
HARRISBURG     MOCLDY    50  49  96 W3        29.89F FOG
YORK           FOG       46  46 100 CALM      29.89F VSB 1/2
$$

PAZ038>040-043-044-047-048-054-055-060>062-067>071-280800-
EASTERN PENNSYLVANIA

CITY           SKY/WX    TMP DP  RH WIND       PRES   REMARKS
SCRANTON       CLOUDY    48  47  96 E3        29.89F FOG
MOUNT POCONO   FOG       46  46 100 CALM      29.92F VSB 1/4
ALLENTOWN      MOCLDY    45  43  93 CALM      29.93F FOG
QUAKERTOWN*    CLOUDY    48  48 100 CALM      29.93F
READING        CLOUDY    48  48 100 N3        29.91F FOG
LANCASTER      PTCLDY    50  50 100 NE6       29.89F FOG
COATESVILLE    FOG       50  50 100 CALM      29.91F VSB 1
POTTSTOWN      CLOUDY    48  48 100 CALM      29.93F FOG
BLUE BELL      CLOUDY    50  50 100 CALM      29.90F
DOYLESTOWN     CLOUDY    49  49 100 VRB3      29.91F
WILLOW GROVE   NOT AVBL
NORTH PHILA    CLOUDY    51  50  96 E8        29.93F FOG
PHILADELPHIA   CLOUDY    51  49  92 NE3       29.92F FOG
$$




USA.gov is the U.S. government's official web portal to all federal, state and local government web resources and services.